Regional Weather Roundup
Issued by NWS

Home | Current Version | Previous Version | Text Only | Print | Product List | Glossary Off
Versions: 1 2 3 4 5 6 7 8 9 10 11 12 13 14 15 16 17 18 19 20 21 22 23 24 25 26 27 28 29 30 31 32 33 34 35 36 37 38 39 40 41 42 43 44 45 46 47 48 49 50

083
ASUS45 KCYS 240410
RWRWY

WYOMING REGIONAL WEATHER ROUNDUP
NATIONAL WEATHER SERVICE CHEYENNE WY
900 PM MST THU NOV 23 2017

NOTE:  "FAIR" INDICATES FEW OR NO CLOUDS BELOW 12,000 FEET
WITH NO SIGNIFICANT WEATHER AND/OR OBSTRUCTIONS TO VISIBILITY.

WYZ001-240500-
YELLOWSTONE NATIONAL PARK

CITY           SKY/WX    TMP DP  RH WIND       PRES   REMARKS
LK YELLOWSTONE   N/A     41  34  76 W10G25    29.98F
W YELLOWSTONE  NOT AVBL

$$
WYZ002>013-054>058-071-098>099-240500-
NORTHERN WYOMING

CITY           SKY/WX    TMP DP  RH WIND       PRES   REMARKS
JACKSON          N/A     48  37  65 S21         N/A
CODY           FAIR      57  30  35 SW10G18   29.79
GREYBULL       FAIR      42  35  76 SE9       29.77F
WORLAND        FAIR      36  34  92 SW12      29.79F WCI  28
SHERIDAN       FAIR      63  29  27 SW13G21   29.64F
BUFFALO        FAIR      62  21  20 SW23G35   29.73F
GILLETTE       FAIR      56  34  43 SW21G28   29.69F
HULETT         FAIR      54  34  47 SW8       29.69F
NEWCASTLE      FAIR      41  32  70 NE5       29.76F

$$
WYZ014>020-022>026-101>103-240500-
CENTRAL WYOMING

CITY           SKY/WX    TMP DP  RH WIND       PRES   REMARKS
BIG PINEY      CLOUDY    46  36  68 W17       30.11S
PINEDALE       LGT RAIN  37  36  93 CALM      30.09F
DUBOIS         DRIZZLE   43  34  70 NW16G29   29.97S
LANDER         FAIR      54  30  40 W10       29.90F
RIVERTON       FAIR      55  30  38 W13       29.90F
CASPER         FAIR      55  36  48 SW23      29.89F
DOUGLAS        FAIR      53  38  56 W6        29.86F

$$
WYZ021-027>030-104>119-240500-
SOUTHERN WYOMING

CITY           SKY/WX    TMP DP  RH WIND       PRES   REMARKS
EVANSTON       CLOUDY    48  33  56 SW8       30.15F
KEMMERER       FAIR      45  34  65 W15G26    30.14F
FORT BRIDGER   MOCLDY    47  34  60 W14       30.16F
ROCK SPRINGS   CLOUDY    49  33  54 SW13      30.13S
DIXON          FAIR      43  32  65 W5        30.16F
RAWLINS        LGT RAIN  49  33  54 W26G36    30.04F
SARATOGA       FAIR      50  32  50 S15       30.10F
LARAMIE        FAIR      48  29  47 W16       30.06F
CHEYENNE       FAIR      55  30  38 W17       29.96F
TORRINGTON     FAIR      64  37  36 W24G40    29.79F
PINE BLUFFS    FAIR      54  28  37 W16       29.91F

$$




USA.gov is the U.S. government's official web portal to all federal, state and local government web resources and services.